Location: *
(46.9667°S, 179.7500°W)
Time: 02:58:08
(UTC+00:00)

Daily predictions for brighter satellites

Satellite Brightness Start Highest point End
(mag) Time Altitude Azimuth Time Altitude Azimuth Time Altitude Azimuth
COSMOS 2406 3.8 04:47:17 10° N 04:52:30 38° ENE 04:57:45 10° SE
COSMO-SKYMED 1 2.6 04:49:29 10° NNE 04:53:48 61° ESE 04:58:11 10° S
Cosmos 2173 Rocket 4.3 04:52:53 10° S 04:59:03 46° ESE 05:05:04 10° NNE
Cosmos 1782 3.7 04:56:38 10° SSE 05:00:10 28° ESE 05:03:38 10° NE
Cosmos 1833 Rocket 2.8 04:54:32 10° NNW 05:00:10 70° ENE 05:05:52 10° SSE
SJ-12 4.0 04:59:19 10° SSE 05:03:32 70° ENE 05:07:41 10° N
USA 305 2.8 05:01:04 10° WSW 05:05:18 71° SSE 05:09:31 10° ENE
SeaSat 1 3.2 05:01:38 10° SSE 05:06:30 54° SW 05:11:18 10° NW
Cosmos 1486 Rocket 4.4 05:01:32 10° SSW 05:06:42 44° ESE 05:11:49 10° NE
Cosmos 2360 Rocket 4.0 05:05:20 10° SSE 05:07:08 11° SSE 05:08:55 10° SE
Cosmos 1953 Rocket 4.1 05:03:07 10° NNW 05:07:30 64° WSW 05:11:55 10° S
CZ-2C R/B 4.0 05:02:59 10° N 05:08:21 46° W 05:13:43 10° SSW
Cosmos 1933 3.6 05:04:58 10° S 05:08:56 45° ESE 05:12:51 10° NNE
Cosmos 2278 4.3 05:03:59 10° SSW 05:09:09 34° SE 05:14:17 10° ENE
Lacrosse 5 rocket 2.9 05:06:33 10° SW 05:09:40 20° S 05:12:32 11° SE
Cosmos 1727 Rocket 4.0 05:03:26 10° N 05:09:40 75° E 05:15:56 10° SSE
Cosmos 192 4.4 05:05:34 10° NNW 05:10:32 79° ENE 05:15:34 10° SSE
Cosmos 1939 Rocket 3.9 05:07:20 10° SE 05:10:39 25° E 05:13:55 10° NNE
YAOGAN 6 4.2 05:14:28 10° S 05:17:45 34° WSW 05:20:58 10° NW
Cosmos 1076 Rocket 3.6 05:14:39 10° N 05:18:58 59° E 05:23:19 10° SSE
BREEZE-M DEB (TANK) 3.6 05:10:55 10° WSW 05:20:58 61° NW 05:24:25 10° NE
Cosmos 1802 Rocket 4.2 05:15:02 10° S 05:21:23 53° ESE 05:27:41 10° NNE
Cosmos 1459 Rocket 4.0 05:16:24 10° S 05:22:35 65° ESE 05:28:49 10° NNE
Meteor 2-3 Rocket 3.8 05:17:49 10° N 05:23:23 65° E 05:29:04 10° SSE
Cosmos 968 Rocket 4.0 05:21:13 10° SSW 05:26:32 67° WNW 05:31:44 10° N
USA 281 4.3 05:21:23 10° SE 05:26:37 24° E 05:31:48 10° NNE
Orbus 7S? 4.3 05:22:50 10° SW 05:26:51 27° SSE 05:28:30 17° ESE
ATLAS 2AS CENTAUR R/B 3.5 05:20:39 10° SW 05:27:35 60° WNW 05:34:57 10° NNE
CZ-4B R/B 4.0 05:26:48 10° SSE 05:31:20 79° ENE 05:35:40 10° N
Envisat 4.2 05:27:04 10° S 05:31:56 42° WSW 05:36:44 10° NW
Cosmos 1812 3.0 05:28:30 10° S 05:32:16 45° ESE 05:35:59 10° NNE
Cosmos 2221 3.6 05:28:28 10° SSW 05:32:48 49° W 05:37:04 10° NNW
Cosmos 2100 Rocket 4.0 05:28:52 10° S 05:35:15 86° E 05:41:30 10° N
H-2A R/B 4.4 05:32:03 10° S 05:35:37 35° WSW 05:39:11 10° NW
CZ-4B R/B 3.9 05:34:48 18° ESE 05:36:18 23° E 05:39:27 10° NNE
Cosmos 1503 Rocket 4.2 05:31:36 10° SSW 05:36:39 46° ESE 05:41:39 10° NE
SJ 16-02 2.4 05:33:00 10° S 05:36:43 25° ESE 05:39:38 14° ENE
Cosmos 1842 Rocket 4.3 05:32:25 10° SSW 05:36:52 59° W 05:41:13 10° N
CZ-2C R/B 3.3 05:32:10 10° S 05:36:59 65° WSW 05:41:53 10° NNW
Cosmos 724 4.5 05:32:08 10° NW 05:38:18 86° SW 05:44:23 11° SE
Cosmos 1980 Rocket 2.1 05:34:34 10° SSW 05:40:17 82° ESE 05:45:54 10° NNE
CZ-4C R/B 3.7 05:42:06 10° NE 05:45:00 29° ESE 05:47:59 10° S
Meteor 1-26 Rocket 4.4 05:40:20 10° SSW 05:46:30 89° WNW 05:52:30 10° N
USA 306 3.2 05:43:11 10° WSW 05:47:24 67° NW 05:51:34 10° NE
Lacrosse 4 Rocket 4.0 05:46:26 10° WSW 05:48:19 12° SSW 05:50:14 10° S
Aureole 1 Rocket 4.0 05:41:11 10° SSW 05:48:36 88° ESE 05:54:14 10° NNE
Cosmos 2322 Rocket 3.2 05:44:51 10° S 05:49:36 26° SE 05:51:24 22° ESE
H-2A R/B 4.1 05:52:26 13° SSE 05:52:26 13° SSE 05:53:20 10° SSE
RESURS DK-1 2.3 05:46:57 10° SSW 05:51:11 88° ESE 05:55:21 10° NNE
USA 307 3.1 05:48:28 10° WSW 05:52:42 70° NW 05:56:49 10° NE
Cosmos 2082 Rocket 2.1 05:48:51 10° NNW 05:54:29 79° ENE 05:59:35 13° SSE
Cosmos 2369 4.1 05:50:06 10° SSW 05:55:49 69° WNW 06:01:28 10° NNE
Cosmos 1697 Rocket 4.2 05:52:32 10° SW 05:57:49 40° WNW 06:03:04 10° N
H-2A R/B 2.2 05:55:24 12° SSE 05:59:43 44° E 06:04:26 10° N
Cosmos 2333 Rocket 3.9 05:56:52 10° S 05:59:59 15° SSE 05:59:59 15° SSE
USA 215 3.2 05:54:31 10° ENE 06:01:09 84° SE 06:07:48 10° SW
ERBS 2.2 05:59:43 10° SW 06:02:49 51° SSE 06:03:04 49° SE
Cosmos 2123 Rocket 4.0 05:56:32 10° N 06:02:53 77° E 06:09:18 10° SSE
Cosmos 2061 Rocket 4.0 05:58:16 10° S 06:04:46 78° E 06:11:05 10° NNE
Cosmos 1862 3.4 06:01:09 10° N 06:05:03 54° E 06:07:13 24° SSE
Lacrosse 5 2.6 06:00:19 10° SW 06:05:07 38° SSE 06:06:47 30° ESE
Cosmos 1725 Rocket 3.9 05:58:46 10° S 06:05:07 81° E 06:11:26 10° N
Cosmos 1766 Rocket 4.3 06:01:20 10° NNE 06:04:51 30° E 06:04:51 30° E
CZ-2C R/B 3.5 06:04:58 10° NNW 06:06:50 13° N 06:08:37 10° NNE
Cosmos 2219 Rocket 4.1 06:06:44 10° S 06:08:49 14° SSE 06:08:49 14° SSE
CORIOLIS 4.4 06:05:10 13° SSE 06:10:00 49° E 06:15:18 10° N
ADEOS 3.5 06:04:40 10° SSE 06:10:01 80° ENE 06:15:17 10° NNW
FengYun 1-2 T 4.2 06:04:33 10° SSE 06:10:13 84° ENE 06:15:45 10° NNW
NOAA 12 4.1 06:05:18 10° SSE 06:10:42 85° WSW 06:16:01 10° NNW
Meteor 1-31 Rocket 4.3 06:10:01 10° S 06:13:45 37° WSW 06:17:25 10° NW
Cosmos 2084 3.8 06:10:23 10° NNW 06:15:08 59° NE 06:16:41 39° ESE
Cosmos 2151 4.1 06:13:29 10° NNW 06:17:39 45° WSW 06:21:53 10° S
Cosmos 967 Rocket 4.4 06:13:12 10° NNW 06:19:27 81° ENE 06:23:15 26° SE
USA 308 4.0 06:19:29 10° WSW 06:23:30 43° NW 06:26:33 16° NNE
Cosmos 1867 4.3 06:18:57 10° SSW 06:23:49 33° SE 06:23:54 32° SE
IRIDIUM 103 4.5 06:18:59 10° NNE 06:24:01 49° E 06:27:48 18° SSE
AQUARIUS 4.1 06:25:01 31° SSE 06:27:07 70° ENE 06:31:38 10° N
SL-16 R/B 2.2 06:25:34 10° SSW 06:31:15 59° ESE 06:33:22 37° ENE
NOAA 6 3.9 06:29:17 30° SSE 06:31:51 64° ENE 06:36:57 10° N
COSMOS 2406 4.4 06:31:27 10° WNW 06:36:47 39° SW 06:41:29 13° SSE
Cosmos 2237 4.4 06:32:12 10° SSW 06:37:46 48° SE 06:37:58 48° ESE
Cosmos 1777 Rocket 3.8 06:33:57 10° SSW 06:39:16 80° ESE 06:42:24 25° NNE
Cosmos 1328 Rocket 4.3 06:37:33 10° S 06:40:22 38° S 06:40:22 38° S
IRIDIUM 106 4.2 06:37:03 10° N 06:42:16 71° E 06:45:56 20° S
Cosmos 1354 Rocket 4.5 06:40:16 10° SSW 06:45:29 60° WNW 06:50:39 10° N
SMAP 3.4 06:44:40 20° S 06:47:52 65° WSW 06:52:30 10° NNW
Lacrosse 5 rocket 2.8 06:45:49 10° SW 06:48:05 27° SSW 06:48:05 27° SSW
Cosmos 2360 Rocket 3.0 06:47:20 10° SSW 06:51:15 36° SSE 06:51:15 36° SSE
Cosmos 2233 Rocket 4.3 06:47:14 10° SSW 06:53:30 69° W 06:59:47 10° N
Cosmos 1151 Rocket 3.7 06:50:07 10° SSW 06:54:29 55° W 06:58:46 10° N
Cosmos 1447 Rocket 4.3 06:50:08 10° N 06:56:20 87° E 07:02:35 10° S
Meteor 1-10 Rocket 4.4 06:51:54 10° SSW 06:57:39 71° W 07:03:13 10° N
CZ-4B DEB 4.3 06:59:36 61° NE 06:59:36 61° NE 07:04:21 10° N
ATLAS 5 CENTAUR R/B 4.5 06:57:38 10° NNE 06:59:37 17° NNE 06:59:37 17° NNE
SL-8 R/B 4.2 06:59:07 10° NW 07:03:01 51° NNW 07:03:01 51° NNW
Meteor 1-27 Rocket 3.5 06:58:53 10° S 07:04:32 84° ESE 07:04:59 76° NE
CZ-2D R/B 4.4 07:05:24 41° WSW 07:05:24 41° WSW 07:09:00 10° NW
Cosmos 1891 Rocket 4.4 07:00:11 10° S 07:06:40 70° E 07:06:49 70° E
USA 281 3.3 07:08:10 30° SSE 07:11:41 75° WSW 07:18:18 10° NW
ARGOS 3.1 07:12:25 74° SSW 07:12:51 80° WSW 07:18:15 10° NNW
SJ 16-02 2.6 07:11:14 10° SW 07:15:24 39° WNW 07:16:45 31° NW
Cosmos 2322 Rocket 2.7 07:28:27 10° SSW 07:33:15 58° WSW 07:33:15 58° WSW
H-2A R/B 3.9 07:36:01 16° SSW 07:38:55 26° WSW 07:43:01 10° WNW
Cosmos 2082 Rocket 4.2 07:34:53 10° W 07:39:15 22° SW 07:41:27 18° SSW
Cosmos 2333 Rocket 4.0 07:40:01 10° SSW 07:42:01 22° SSW 07:42:01 22° SSW
Lacrosse 5 3.5 07:43:19 10° SW 07:46:00 31° WSW 07:46:00 31° WSW
Cosmos 2219 Rocket 4.4 07:49:18 10° SSW 07:50:32 17° SSW 07:50:32 17° SSW
SL-16 R/B 4.1 08:10:25 10° SW 08:14:55 24° WNW 08:15:20 24° WNW
